Valdosta, GA

9:03 AM EDT on July 29, 2016 (GMT -0400)
Valdosta Regional

Weather History for KVLD - March, 2013

Change the Weather History Date:

Monday, March 11, 2013

  Actual Average Record
Temperature  
Mean Temperature 66 °F 59 °F  
Max Temperature 78 °F 72 °F 86 °F (2015)
Min Temperature 54 °F 47 °F 32 °F (1998)
Degree Days  
Heating Degree Days 0 7  
Month to date heating degree days 136 82  
Since 1 July heating degree days 1005 1462  
Cooling Degree Days 1 1  
Month to date cooling degree days 3 11  
Year to date cooling degree days 80 21  
Growing Degree Days 16 (Base 50)    
Moisture  
Dew Point 53 °F    
Average Humidity 63    
Maximum Humidity 86    
Minimum Humidity 39    
Precipitation  
Precipitation 0.03 in 0.16 in 0.22 in (1951)
Month to date precipitation 0.06 1.86  
Year to date precipitation 6.21 10.59  
Sea Level Pressure  
Sea Level Pressure 30.02 in    
Wind  
Wind Speed 9 mph (SSE)    
Max Wind Speed 22 mph    
Max Gust Speed 31 mph    
Visibility 10 miles    
Events Rain    
T = Trace of Precipitation, MM = Missing Value Source: NWS Daily Summary

Daily Weather History Graph

Daily Weather History Graph

Search for Another Location

Airport or City:

Trip Planner

Search our weather history database for the weather conditions in past years. The results will help you decide how hot, cold, wet, or windy it might be!

Date:

Astronomy

Mar. 11, 2013 Rise Set
Actual Time 7:47 AM EDT 7:38 PM EDT
Civil Twilight 7:23 AM EDT 8:02 PM EDT
Nautical Twilight 6:55 AM EDT 8:30 PM EDT
Astronomical Twilight 6:27 AM EDT 8:58 PM EDT
Moon 7:22 AM EDT (3/11) 7:45 PM EDT (3/11)
Length of Visible Light 12h 39m
Length of Day
11h 51m
Waning Crescent, 0% of the Moon is Illuminated
Mar 11
Waning Crescent
Mar 11
New
Mar 19
First Quarter
Mar 27
Full
Apr 3
Last Quarter

Hourly Weather History & Observations

Time (EDT) Temp. Dew Point Humidity Pressure Visibility Wind Dir Wind Speed Gust Speed Precip Events Conditions
12:53 AM 61.0 °F 51.1 °F 70% 30.15 in 10.0 mi SSE 4.6 mph - N/A   Clear
1:53 AM 59.0 °F 51.1 °F 75% 30.13 in 10.0 mi SE 5.8 mph - N/A   Clear
2:53 AM 57.9 °F 51.1 °F 78% 30.12 in 10.0 mi Calm Calm - N/A   Clear
3:53 AM 57.0 °F 51.1 °F 81% 30.09 in 10.0 mi SE 3.5 mph - N/A   Clear
4:53 AM 55.9 °F 50.0 °F 80% 30.07 in 10.0 mi SE 3.5 mph - N/A   Clear
5:53 AM 55.9 °F 51.1 °F 84% 30.06 in 10.0 mi ESE 3.5 mph - N/A   Clear
6:53 AM 55.0 °F 50.0 °F 83% 30.06 in 10.0 mi SE 3.5 mph - N/A   Clear
7:53 AM 55.0 °F 51.1 °F 86% 30.06 in 10.0 mi ESE 4.6 mph - N/A   Partly Cloudy
8:53 AM 59.0 °F 53.1 °F 81% 30.09 in 10.0 mi SSE 5.8 mph - N/A   Overcast
9:53 AM 61.0 °F 53.1 °F 75% 30.09 in 10.0 mi SSE 5.8 mph - N/A   Overcast
10:53 AM 66.0 °F 54.0 °F 65% 30.10 in 10.0 mi South 9.2 mph - N/A   Overcast
11:53 AM 69.1 °F 54.0 °F 58% 30.09 in 10.0 mi Variable 4.6 mph - N/A   Overcast
12:53 PM 71.1 °F 54.0 °F 55% 30.06 in 10.0 mi SSW 9.2 mph - N/A   Scattered Clouds
1:53 PM 72.0 °F 54.0 °F 53% 30.03 in 10.0 mi South 9.2 mph 21.9 mph N/A   Overcast
2:53 PM 73.9 °F 54.0 °F 50% 29.98 in 10.0 mi South 13.8 mph 19.6 mph N/A   Mostly Cloudy
3:53 PM 78.1 °F 52.0 °F 40% 29.95 in 10.0 mi South 20.7 mph 26.5 mph N/A   Partly Cloudy
4:53 PM 75.9 °F 53.1 °F 45% 29.91 in 10.0 mi SSE 19.6 mph 24.2 mph N/A   Scattered Clouds
5:53 PM 73.9 °F 53.1 °F 48% 29.91 in 10.0 mi South 15.0 mph 20.7 mph N/A   Mostly Cloudy
7:53 PM 71.1 °F 55.0 °F 57% 29.91 in 10.0 mi South 6.9 mph - N/A   Mostly Cloudy
8:53 PM 70.0 °F 55.9 °F 61% 29.91 in 10.0 mi South 6.9 mph - N/A   Overcast
9:53 PM 66.0 °F 57.9 °F 75% 29.91 in 10.0 mi South 9.2 mph - 0.01 in Rain Light Rain
10:53 PM 66.0 °F 57.9 °F 75% 29.88 in 10.0 mi South 13.8 mph - 0.00 in   Mostly Cloudy
11:53 PM 64.9 °F 59.0 °F 81% 29.87 in 10.0 mi South 10.4 mph - 0.01 in Rain Light Rain